Location: Degersen
(52.2871°N, 9.5716°E)
Time: 05:55:16
(UTC+00:00)

Cosmos 2082 Rocket - Pass Details

Date: 20 January 2026
Orbit: 831 x 853 km, 71.0° (Epoch: 18 February)

Event Time Altitude Azimuth Distance (km) Brightness Sun altitude
Exits shadow 03:44:08 56° 71° (ENE) 1,004 2.7 -32.3°
Drops below altitude 10° 03:49:19 10° 132° (SE) 2,473 5.0 -31.5°
Sets 03:51:49 0° 137° (SE) 3,408 5.8 -31.1°
